WetterOnline ( https://www.wetteronline.ch )

Wetter aktuell Offenburg

Aktuelles Wetter: Lahr (156m)

6-stündlich | Neueste Meldungen
Ortszeit Temperatur Wetter
Mo, 13.07. 2:00 14.0° C wolkig
So, 12.07. 20:00 24.4° C leicht bewölkt
So, 12.07. 14:00 24.2° C wolkenlos
So, 12.07. 8:00 13.2° C wolkenlos
So, 12.07. 2:00 12.3° C wolkenlos
Sa, 11.07. 20:00 22.3° C wolkenlos
Sa, 11.07. 14:00 23.0° C fast wolkenlos
Sa, 11.07. 8:00 16.3° C bewölkt
Ortszeit Temperatur Wetter
Mo, 13.07. 2:30 13.4° C wolkig
Mo, 13.07. 2:20 13.4° C wolkig
Mo, 13.07. 2:10 13.4° C wolkig
Mo, 13.07. 2:00 14.0° C wolkig
Mo, 13.07. 1:50 14.0° C wolkig
Mo, 13.07. 1:40 14.8° C wolkig
Mo, 13.07. 1:30 14.5° C wolkig
Mo, 13.07. 1:00 15.6° C wolkenlos
Mo, 13.07. 0:00 15.4° C wolkenlos
So, 12.07. 22:00 18.7° C wolkig
Ortszeit Relative Feuchte Sichtweite
Mo, 13.07. 2:00 64% 65 km
So, 12.07. 20:00 30% >70 km
So, 12.07. 14:00 32% 60 km
So, 12.07. 8:00 70% 55 km
So, 12.07. 2:00 74% 50 km
Sa, 11.07. 20:00 33% 65 km
Sa, 11.07. 14:00 37% 65 km
Sa, 11.07. 8:00 73% 55 km
Ortszeit Relative Feuchte Sichtweite
Mo, 13.07. 2:30 67% >70 km
Mo, 13.07. 2:20 67% -
Mo, 13.07. 2:10 67% -
Mo, 13.07. 2:00 64% 65 km
Mo, 13.07. 1:50 64% -
Mo, 13.07. 1:40 62% -
Mo, 13.07. 1:30 63% 55 km
Mo, 13.07. 1:00 59% 65 km
Mo, 13.07. 0:00 59% >70 km
So, 12.07. 22:00 48% >70 km
Ortszeit Niederschlagsmenge Niederschlagsart
Mo, 13.07. 2:00 0.0 l/m2 in 6 Std. -
So, 12.07. 20:00 0.0 l/m2 in 12 Std. -
So, 12.07. 14:00 0.0 l/m2 in 6 Std. -
So, 12.07. 8:00 0.0 l/m2 in 12 Std. -
So, 12.07. 2:00 0.0 l/m2 in 6 Std. -
Sa, 11.07. 20:00 0.0 l/m2 in 12 Std. -
Sa, 11.07. 14:00 0.0 l/m2 in 6 Std. -
Sa, 11.07. 8:00 0.1 l/m2 in 12 Std. Regen
Ortszeit Niederschlagsmenge Niederschlagsart
Mo, 13.07. 2:30 0.0 l/m2 in 1 Std. -
Mo, 13.07. 2:20 keine Meldung -
Mo, 13.07. 2:10 keine Meldung -
Mo, 13.07. 2:00 0.0 l/m2 in 1 Std. -
Mo, 13.07. 1:50 keine Meldung -
Mo, 13.07. 1:40 keine Meldung -
Mo, 13.07. 1:30 0.0 l/m2 in 1 Std. -
Mo, 13.07. 1:00 0.0 l/m2 in 1 Std. -
Mo, 13.07. 0:00 keine Meldung -
So, 12.07. 22:00 keine Meldung -
Ortszeit Stärke Spitze Richtung
km/h Bft. km/h Grad Sektor
Mo, 13.07. 2:00 4 1 32 340° N
So, 12.07. 20:00 24 4 41 30° NO
So, 12.07. 14:00 22 4 40 30° NO
So, 12.07. 8:00 9 2 13 30° NO
So, 12.07. 2:00 2 1 24 110° O
Sa, 11.07. 20:00 14 3 36 10° N
Sa, 11.07. 14:00 14 3 32 20° N
Sa, 11.07. 8:00 22 4 29 20° N
Ortszeit Stärke Spitze Richtung
km/h Bft. km/h Grad Sektor
Mo, 13.07. 2:30 4 1 7 360° N
Mo, 13.07. 2:20 4 1 - 360° N
Mo, 13.07. 2:10 4 1 - 20° N
Mo, 13.07. 2:00 4 1 11 340° N
Mo, 13.07. 1:50 4 1 - 340° N
Mo, 13.07. 1:40 4 1 - 240° SW
Mo, 13.07. 1:30 4 1 11 130° SO
Mo, 13.07. 1:00 4 1 14 50° NO
Mo, 13.07. 0:00 11 2 18 10° N
So, 12.07. 22:00 11 2 14 30° NO
Ortszeit Untergrenze Bedeckung Gattung
total tief tief mittel hoch
Mo, 13.07. 2:00 10500 m 8/8 0/8 - - -
So, 12.07. 20:00 10500 m 4/8 0/8 - - -
So, 12.07. 14:00 - 0/8 0/8 - - -
So, 12.07. 8:00 - 0/8 0/8 - - -
So, 12.07. 2:00 - 0/8 0/8 - - -
Sa, 11.07. 20:00 - 0/8 0/8 - - -
Sa, 11.07. 14:00 1500 m 1/8 1/8 - - -
Sa, 11.07. 8:00 2400 m 7/8 7/8 - - -
Ortszeit Bedeckungsgrad in Achtel und Wolkenuntergrenze
Mo, 13.07. 2:30 8(9000m)
Mo, 13.07. 2:20 8(9000m)
Mo, 13.07. 2:10 8(10500m)
Mo, 13.07. 2:00 8(10500m)
Mo, 13.07. 1:50 8(10500m)
Mo, 13.07. 1:40 8(10500m)
Mo, 13.07. 1:30 5(10500m) 7(10500m)
Mo, 13.07. 1:00 3(10500m)
Mo, 13.07. 0:00 keine Wolken
So, 12.07. 22:00 7(9000m)
Ortszeit Luftdruck NN (hPa) Tendenz (hPa in 3 Std.)
Mo, 13.07. 2:00 1023 - 0,1
So, 12.07. 20:00 1021 - 1,0
So, 12.07. 14:00 1024 - 0,7
So, 12.07. 8:00 1025 + 0,9
So, 12.07. 2:00 1025 + 0,3
Sa, 11.07. 20:00 1023 + 0,3
Sa, 11.07. 14:00 1022 + 0,3
Sa, 11.07. 8:00 1021 + 1,9
Ortszeit Luftdruck NN (hPa) Tendenz (hPa in 3 Std.)
Mo, 13.07. 2:30 1023 - 0,1
Mo, 13.07. 2:20 1023 keine Meldung
Mo, 13.07. 2:10 1023 keine Meldung
Mo, 13.07. 2:00 1023 - 0,1
Mo, 13.07. 1:50 1023 keine Meldung
Mo, 13.07. 1:40 1023 keine Meldung
Mo, 13.07. 1:30 1023 - 0,1
Mo, 13.07. 1:00 1023 + 0,1
Mo, 13.07. 0:00 1023 + 0,5
So, 12.07. 22:00 1022 + 0,2
Ortszeit Schneehöhe (cm)
Mo, 13.07. 2:00 -
So, 12.07. 20:00 -
So, 12.07. 14:00 -
So, 12.07. 8:00 -
So, 12.07. 2:00 -
Sa, 11.07. 20:00 -
Sa, 11.07. 14:00 -
Sa, 11.07. 8:00 -
Ortszeit Schneehöhe (cm)
Mo, 13.07. 2:30 -
Mo, 13.07. 2:20 -
Mo, 13.07. 2:10 -
Mo, 13.07. 2:00 -
Mo, 13.07. 1:50 -
Mo, 13.07. 1:40 -
Mo, 13.07. 1:30 -
Mo, 13.07. 1:00 -
Mo, 13.07. 0:00 -
So, 12.07. 22:00 -
Link zu dieser Seite / Seite empfehlen

Das Wetter in ...